sat.trackr.live / text

‹ back to catalog

STARLINK-34070

NORAD 63913 · 2025-095Z

PAYLOAD ACTIVE UNKNOWN

§ Identity

Operator
Country
US
Launch date
2025-05-10
Launch site
AFETR
Launch vehicle
Mass (kg)
RCS (m²)

Purposes: comms

External: N2YO · Heavens-Above · Gunter

§ Orbital elements

Epoch: 2026-05-25T03:54:30.235680Z

Period
94.27 min
Inclination
43.0000°
Eccentricity
0.0001191
Mean motion
15.27597110 rev/d
Perigee alt
482.2 km
Apogee alt
483.8 km
Semi-major
6,861.1 km
B*
7.3894e-4
RAAN
104.3103°
Arg perigee
269.2869°
Mean anomaly
90.7846°
Rev number
5,947

§ Raw data

STARLINK-340701 63913U 25095Z   26145.16284995  .00020138  00000+0  73894-3 0  99922 63913  43.0000 104.3103 0001191 269.2869  90.7846 15.27597110 59474

JSON: /api/v1/satellites/63913 · /tle

For live sub-satellite position, see the globe view (requires WebGL).

§ Visibility from observer

Set your observer location to see the next 7 days of passes ≥ 10°. The values pass through the URL so the page stays shareable.

No JS? Fill the form by hand. The geolocation button needs JavaScript.